Year,Month,Day,Hour,Minute,Value (Times are PST for temperature in C)
2006,06,21,00,00,11.30
2006,06,21,00,01,11.30
2006,06,21,00,02,11.20
2006,06,21,00,03,11.20
2006,06,21,00,04,11.20
2006,06,21,00,05,11.10
2006,06,21,00,06,11.10
2006,06,21,00,07,11.10
2006,06,21,00,08,11.10
2006,06,21,00,09,11.10
2006,06,21,00,10,11.10
2006,06,21,00,11,11.10
2006,06,21,00,12,11.10
2006,06,21,00,13,11.10
2006,06,21,00,14,10.90
2006,06,21,00,15,10.90
2006,06,21,00,16,10.90
2006,06,21,00,17,10.90
2006,06,21,00,18,10.90
2006,06,21,00,19,10.80
2006,06,21,00,20,10.80
2006,06,21,00,21,10.80
2006,06,21,00,22,10.70
2006,06,21,00,23,10.70
2006,06,21,00,24,10.60
2006,06,21,00,25,10.60
2006,06,21,00,26,10.60
2006,06,21,00,27,10.60
2006,06,21,00,28,10.50
2006,06,21,00,29,10.40
2006,06,21,00,30,10.40
2006,06,21,00,31,10.30
2006,06,21,00,32,10.30
2006,06,21,00,33,10.20
2006,06,21,00,34,10.20
2006,06,21,00,35,10.10
2006,06,21,00,36,10.10
2006,06,21,00,37,10.10
2006,06,21,00,38,10.10
2006,06,21,00,39,10.00
2006,06,21,00,40,9.90
2006,06,21,00,41,9.90
2006,06,21,00,42,9.90
2006,06,21,00,43,9.90
2006,06,21,00,44,9.80
2006,06,21,00,45,9.80
2006,06,21,00,46,9.80
2006,06,21,00,47,9.70
2006,06,21,00,48,9.70
2006,06,21,00,49,9.70
2006,06,21,00,50,9.70
2006,06,21,00,51,9.70
2006,06,21,00,52,9.70
2006,06,21,00,53,9.70
2006,06,21,00,54,9.70
2006,06,21,00,55,9.70
2006,06,21,00,56,9.70
2006,06,21,00,57,9.70
2006,06,21,00,58,9.70
2006,06,21,00,59,9.70
2006,06,21,01,00,9.70
2006,06,21,01,01,9.70
2006,06,21,01,02,9.70
2006,06,21,01,03,9.70
2006,06,21,01,04,9.70
2006,06,21,01,05,9.70
2006,06,21,01,06,9.70
2006,06,21,01,07,9.70
2006,06,21,01,08,9.70
2006,06,21,01,09,9.70
2006,06,21,01,10,9.70
2006,06,21,01,11,9.60
2006,06,21,01,12,9.60
2006,06,21,01,13,9.60
2006,06,21,01,14,9.60
2006,06,21,01,15,9.50
2006,06,21,01,16,9.50
2006,06,21,01,17,9.50
2006,06,21,01,18,9.40
2006,06,21,01,19,9.40
2006,06,21,01,20,9.40
2006,06,21,01,21,9.30
2006,06,21,01,22,9.30
2006,06,21,01,23,9.30
2006,06,21,01,24,9.30
2006,06,21,01,25,9.20
2006,06,21,01,26,9.20
2006,06,21,01,27,9.20
2006,06,21,01,28,9.20
2006,06,21,01,29,9.20
2006,06,21,01,30,9.20
2006,06,21,01,31,9.20
2006,06,21,01,32,9.20
2006,06,21,01,33,9.20
2006,06,21,01,34,9.20
2006,06,21,01,35,9.20
2006,06,21,01,36,9.20
2006,06,21,01,37,9.20
2006,06,21,01,38,9.20
2006,06,21,01,39,9.20
2006,06,21,01,40,9.10
2006,06,21,01,41,9.10
2006,06,21,01,42,9.10
2006,06,21,01,43,9.10
2006,06,21,01,44,9.10
2006,06,21,01,45,9.10
2006,06,21,01,46,9.00
2006,06,21,01,47,9.00
2006,06,21,01,48,9.00
2006,06,21,01,49,9.00
2006,06,21,01,50,9.00
2006,06,21,01,51,9.00
2006,06,21,01,52,8.90
2006,06,21,01,53,8.90
2006,06,21,01,54,8.90
2006,06,21,01,55,8.90
2006,06,21,01,56,8.90
2006,06,21,01,57,8.90
2006,06,21,01,58,8.80
2006,06,21,01,59,8.80
2006,06,21,02,00,8.80
2006,06,21,02,01,8.80
2006,06,21,02,02,8.80
2006,06,21,02,03,8.70
2006,06,21,02,04,8.70
2006,06,21,02,05,8.70
2006,06,21,02,06,8.70
2006,06,21,02,07,8.70
2006,06,21,02,08,8.70
2006,06,21,02,09,8.70
2006,06,21,02,10,8.70
2006,06,21,02,11,8.70
2006,06,21,02,12,8.60
2006,06,21,02,13,8.60
2006,06,21,02,14,8.60
2006,06,21,02,15,8.60
2006,06,21,02,16,8.60
2006,06,21,02,17,8.50
2006,06,21,02,18,8.50
2006,06,21,02,19,8.50
2006,06,21,02,20,8.50
2006,06,21,02,21,8.40
2006,06,21,02,22,8.40
2006,06,21,02,23,8.40
2006,06,21,02,24,8.40
2006,06,21,02,25,8.30
2006,06,21,02,26,8.30
2006,06,21,02,27,8.30
2006,06,21,02,28,8.30
2006,06,21,02,29,8.30
2006,06,21,02,30,8.30
2006,06,21,02,31,8.30
2006,06,21,02,32,8.30
2006,06,21,02,33,8.30
2006,06,21,02,34,8.30
2006,06,21,02,35,8.20
2006,06,21,02,36,8.20
2006,06,21,02,37,8.20
2006,06,21,02,38,8.20
2006,06,21,02,39,8.20
2006,06,21,02,40,8.20
2006,06,21,02,41,8.20
2006,06,21,02,42,8.20
2006,06,21,02,43,8.20
2006,06,21,02,44,8.20
2006,06,21,02,45,8.20
2006,06,21,02,46,8.20
2006,06,21,02,47,8.20
2006,06,21,02,48,8.20
2006,06,21,02,49,8.30
2006,06,21,02,50,8.30
2006,06,21,02,51,8.30
2006,06,21,02,52,8.30
2006,06,21,02,53,8.30
2006,06,21,02,54,8.40
2006,06,21,02,55,8.40
2006,06,21,02,56,8.40
2006,06,21,02,57,8.40
2006,06,21,02,58,8.40
2006,06,21,02,59,8.50
2006,06,21,03,00,8.50
2006,06,21,03,01,8.50
2006,06,21,03,02,8.50
2006,06,21,03,03,8.60
2006,06,21,03,04,8.60
2006,06,21,03,05,8.60
2006,06,21,03,06,8.70
2006,06,21,03,07,8.70
2006,06,21,03,08,8.70
2006,06,21,03,09,8.70
2006,06,21,03,10,8.70
2006,06,21,03,11,8.70
2006,06,21,03,12,8.70
2006,06,21,03,13,8.70
2006,06,21,03,14,8.70
2006,06,21,03,15,8.70
2006,06,21,03,16,8.70
2006,06,21,03,17,8.70
2006,06,21,03,18,8.80
2006,06,21,03,19,8.80
2006,06,21,03,20,8.80
2006,06,21,03,21,8.80
2006,06,21,03,22,8.80
2006,06,21,03,23,8.80
2006,06,21,03,24,8.80
2006,06,21,03,25,8.90
2006,06,21,03,26,8.90
2006,06,21,03,27,8.90
2006,06,21,03,28,8.90
2006,06,21,03,29,8.90
2006,06,21,03,30,8.90
2006,06,21,03,31,8.90
2006,06,21,03,32,8.90
2006,06,21,03,33,9.00
2006,06,21,03,34,9.00
2006,06,21,03,35,9.00
2006,06,21,03,36,9.00
2006,06,21,03,37,9.00
2006,06,21,03,38,9.00
2006,06,21,03,39,9.00
2006,06,21,03,40,9.00
2006,06,21,03,41,9.10
2006,06,21,03,42,9.10
2006,06,21,03,43,9.10
2006,06,21,03,44,9.10
2006,06,21,03,45,9.10
2006,06,21,03,46,9.10
2006,06,21,03,47,9.10
2006,06,21,03,48,9.10
2006,06,21,03,49,9.10
2006,06,21,03,50,9.10
2006,06,21,03,51,9.20
2006,06,21,03,52,9.20
2006,06,21,03,53,9.20
2006,06,21,03,54,9.20
2006,06,21,03,55,9.20
2006,06,21,03,56,9.20
2006,06,21,03,57,9.20
2006,06,21,03,58,9.20
2006,06,21,03,59,9.20
2006,06,21,04,00,9.20
2006,06,21,04,01,9.20
2006,06,21,04,02,9.20
2006,06,21,04,03,9.20
2006,06,21,04,04,9.20
2006,06,21,04,05,9.20
2006,06,21,04,06,9.20
2006,06,21,04,07,9.20
2006,06,21,04,08,9.20
2006,06,21,04,09,9.20
2006,06,21,04,10,9.20
2006,06,21,04,11,9.20
2006,06,21,04,12,9.20
2006,06,21,04,13,9.30
2006,06,21,04,14,9.30
2006,06,21,04,15,9.30
2006,06,21,04,16,9.30
2006,06,21,04,17,9.30
2006,06,21,04,18,9.30
2006,06,21,04,19,9.40
2006,06,21,04,20,9.40
2006,06,21,04,21,9.40
2006,06,21,04,22,9.40
2006,06,21,04,23,9.50
2006,06,21,04,24,9.50
2006,06,21,04,25,9.50
2006,06,21,04,26,9.50
2006,06,21,04,27,9.60
2006,06,21,04,28,9.60
2006,06,21,04,29,9.60
2006,06,21,04,30,9.60
2006,06,21,04,31,9.60
2006,06,21,04,32,9.60
2006,06,21,04,33,9.60
2006,06,21,04,34,9.60
2006,06,21,04,35,9.70
2006,06,21,04,36,9.70
2006,06,21,04,37,9.70
2006,06,21,04,38,9.70
2006,06,21,04,39,9.70
2006,06,21,04,40,9.70
2006,06,21,04,41,9.70
2006,06,21,04,42,9.70
2006,06,21,04,43,9.70
2006,06,21,04,44,9.70
2006,06,21,04,45,9.70
2006,06,21,04,46,9.80
2006,06,21,04,47,9.80
2006,06,21,04,48,9.90
2006,06,21,04,49,9.90
2006,06,21,04,50,10.00
2006,06,21,04,51,10.10
2006,06,21,04,52,10.10
2006,06,21,04,53,10.20
2006,06,21,04,54,10.20
2006,06,21,04,55,10.30
2006,06,21,04,56,10.30
2006,06,21,04,57,10.30
2006,06,21,04,58,10.40
2006,06,21,04,59,10.40
2006,06,21,05,00,10.40
2006,06,21,05,01,10.50
2006,06,21,05,02,10.60
2006,06,21,05,03,10.60
2006,06,21,05,04,10.60
2006,06,21,05,05,10.70
2006,06,21,05,06,10.70
2006,06,21,05,07,10.80
2006,06,21,05,08,10.80
2006,06,21,05,09,10.80
2006,06,21,05,10,10.80
2006,06,21,05,11,10.80
2006,06,21,05,12,10.90
2006,06,21,05,13,10.90
2006,06,21,05,14,10.90
2006,06,21,05,15,10.90
2006,06,21,05,16,10.90
2006,06,21,05,17,10.90
2006,06,21,05,18,10.80
2006,06,21,05,19,10.80
2006,06,21,05,20,10.80
2006,06,21,05,21,10.80
2006,06,21,05,22,10.70
2006,06,21,05,23,10.70
2006,06,21,05,24,10.70
2006,06,21,05,25,10.70
2006,06,21,05,26,10.70
2006,06,21,05,27,10.70
2006,06,21,05,28,10.70
2006,06,21,05,29,10.70
2006,06,21,05,30,10.70
2006,06,21,05,31,10.70
2006,06,21,05,32,10.70
2006,06,21,05,33,10.70
2006,06,21,05,34,10.70
2006,06,21,05,35,10.70
2006,06,21,05,36,10.70
2006,06,21,05,37,10.70
2006,06,21,05,38,10.70
2006,06,21,05,39,10.70
2006,06,21,05,40,10.70
2006,06,21,05,41,10.70
2006,06,21,05,42,10.70
2006,06,21,05,43,10.70
2006,06,21,05,44,10.70
2006,06,21,05,45,10.70
2006,06,21,05,46,10.70
2006,06,21,05,47,10.70
2006,06,21,05,48,10.70
2006,06,21,05,49,10.70
2006,06,21,05,50,10.70
2006,06,21,05,51,10.70
2006,06,21,05,52,10.80
2006,06,21,05,53,10.80
2006,06,21,05,54,10.80
2006,06,21,05,55,10.80
2006,06,21,05,56,10.80
2006,06,21,05,57,10.90
2006,06,21,05,58,10.90
2006,06,21,05,59,10.90
2006,06,21,06,00,10.90
2006,06,21,06,01,10.90
2006,06,21,06,02,10.90
2006,06,21,06,03,10.90
2006,06,21,06,04,10.90
2006,06,21,06,05,10.90
2006,06,21,06,06,10.90
2006,06,21,06,07,10.90
2006,06,21,06,08,10.90
2006,06,21,06,09,10.90
2006,06,21,06,10,10.90
2006,06,21,06,11,10.90
2006,06,21,06,12,10.90
2006,06,21,06,13,10.90
2006,06,21,06,14,10.90
2006,06,21,06,15,10.90
2006,06,21,06,16,10.90
2006,06,21,06,17,10.90
2006,06,21,06,18,10.90
2006,06,21,06,19,10.90
2006,06,21,06,20,10.90
2006,06,21,06,21,10.90
2006,06,21,06,22,10.90
2006,06,21,06,23,10.90
2006,06,21,06,24,10.90
2006,06,21,06,25,10.90
2006,06,21,06,26,10.90
2006,06,21,06,27,10.90
2006,06,21,06,28,10.90
2006,06,21,06,29,10.90
2006,06,21,06,30,10.90
2006,06,21,06,31,11.10
2006,06,21,06,32,11.10
2006,06,21,06,33,11.10
2006,06,21,06,34,11.10
2006,06,21,06,35,11.10
2006,06,21,06,36,11.10
2006,06,21,06,37,11.10
2006,06,21,06,38,11.10
2006,06,21,06,39,11.10
2006,06,21,06,40,11.10
2006,06,21,06,41,11.20
2006,06,21,06,42,11.20
2006,06,21,06,43,11.20
2006,06,21,06,44,11.20
2006,06,21,06,45,11.20
2006,06,21,06,46,11.20
2006,06,21,06,47,11.30
2006,06,21,06,48,11.30
2006,06,21,06,49,11.30
2006,06,21,06,50,11.30
2006,06,21,06,51,11.30
2006,06,21,06,52,11.30
2006,06,21,06,53,11.30
2006,06,21,06,54,11.30
2006,06,21,06,55,11.30
2006,06,21,06,56,11.30
2006,06,21,06,57,11.40
2006,06,21,06,58,11.40
2006,06,21,06,59,11.40
2006,06,21,07,00,11.40
2006,06,21,07,01,11.40
2006,06,21,07,02,11.40
2006,06,21,07,03,11.40
2006,06,21,07,04,11.40
2006,06,21,07,05,11.50
2006,06,21,07,06,11.60
2006,06,21,07,07,11.60
2006,06,21,07,08,11.60
2006,06,21,07,09,11.60
2006,06,21,07,10,11.70
2006,06,21,07,11,11.70
2006,06,21,07,12,11.80
2006,06,21,07,13,11.80
2006,06,21,07,14,11.80
2006,06,21,07,15,11.90
2006,06,21,07,16,12.00
2006,06,21,07,17,12.00
2006,06,21,07,18,12.10
2006,06,21,07,19,12.20
2006,06,21,07,20,12.20
2006,06,21,07,21,12.30
2006,06,21,07,22,12.40
2006,06,21,07,23,12.40
2006,06,21,07,24,12.50
2006,06,21,07,25,12.50
2006,06,21,07,26,12.60
2006,06,21,07,27,12.60
2006,06,21,07,28,12.70
2006,06,21,07,29,12.70
2006,06,21,07,30,12.80
2006,06,21,07,31,12.80
2006,06,21,07,32,12.80
2006,06,21,07,33,12.80
2006,06,21,07,34,12.90
2006,06,21,07,35,12.90
2006,06,21,07,36,12.90
2006,06,21,07,37,12.90
2006,06,21,07,38,13.00
2006,06,21,07,39,13.00
2006,06,21,07,40,13.00
2006,06,21,07,41,13.10
2006,06,21,07,42,13.10
2006,06,21,07,43,13.10
2006,06,21,07,44,13.10
2006,06,21,07,45,13.20
2006,06,21,07,46,13.20
2006,06,21,07,47,13.20
2006,06,21,07,48,13.20
2006,06,21,07,49,13.30
2006,06,21,07,50,13.30
2006,06,21,07,51,13.30
2006,06,21,07,52,13.30
2006,06,21,07,53,13.30
2006,06,21,07,54,13.40
2006,06,21,07,55,13.40
2006,06,21,07,56,13.50
2006,06,21,07,57,13.50
2006,06,21,07,58,13.50
2006,06,21,07,59,13.50
2006,06,21,08,00,13.60
2006,06,21,08,01,13.60
2006,06,21,08,02,13.70
2006,06,21,08,03,13.70
2006,06,21,08,04,13.70
2006,06,21,08,05,13.80
2006,06,21,08,06,13.90
2006,06,21,08,07,13.90
2006,06,21,08,08,14.10
2006,06,21,08,09,14.20
2006,06,21,08,10,14.20
2006,06,21,08,11,14.40
2006,06,21,08,12,14.50
2006,06,21,08,13,14.60
2006,06,21,08,14,14.60
2006,06,21,08,15,14.70
2006,06,21,08,16,14.80
2006,06,21,08,17,14.90
2006,06,21,08,18,15.00
2006,06,21,08,19,15.10
2006,06,21,08,20,15.20
2006,06,21,08,21,15.20
2006,06,21,08,22,15.30
2006,06,21,08,23,15.40
2006,06,21,08,24,15.50
2006,06,21,08,25,15.60
2006,06,21,08,26,15.70
2006,06,21,08,27,15.80
2006,06,21,08,28,16.00
2006,06,21,08,29,16.10
2006,06,21,08,30,16.10
2006,06,21,08,31,16.00
2006,06,21,08,32,15.90
2006,06,21,08,33,15.90
2006,06,21,08,34,16.00
2006,06,21,08,35,16.10
2006,06,21,08,36,16.10
2006,06,21,08,37,16.10
2006,06,21,08,38,16.10
2006,06,21,08,39,16.10
2006,06,21,08,40,16.10
2006,06,21,08,41,16.00
2006,06,21,08,42,15.90
2006,06,21,08,43,15.90
2006,06,21,08,44,15.80
2006,06,21,08,45,15.80
2006,06,21,08,46,15.80
2006,06,21,08,47,15.70
2006,06,21,08,48,15.70
2006,06,21,08,49,15.70
2006,06,21,08,50,15.60
2006,06,21,08,51,15.60
2006,06,21,08,52,15.50
2006,06,21,08,53,15.50
2006,06,21,08,54,15.50
2006,06,21,08,55,15.40
2006,06,21,08,56,15.30
2006,06,21,08,57,15.30
2006,06,21,08,58,15.30
2006,06,21,08,59,15.30
2006,06,21,09,00,15.30
2006,06,21,09,01,15.30
2006,06,21,09,02,15.30
2006,06,21,09,03,15.30
2006,06,21,09,04,15.30
2006,06,21,09,05,15.30
2006,06,21,09,06,15.30
2006,06,21,09,07,15.50
2006,06,21,09,08,15.50
2006,06,21,09,09,15.70
2006,06,21,09,10,15.90
2006,06,21,09,11,16.00
2006,06,21,09,12,16.10
2006,06,21,09,13,16.10
2006,06,21,09,14,16.10
2006,06,21,09,15,16.10
2006,06,21,09,16,16.20
2006,06,21,09,17,16.20
2006,06,21,09,18,16.20
2006,06,21,09,19,16.30
2006,06,21,09,20,16.40
2006,06,21,09,21,16.50
2006,06,21,09,22,16.70
2006,06,21,09,23,16.80
2006,06,21,09,24,16.90
2006,06,21,09,25,16.90
2006,06,21,09,26,17.00
2006,06,21,09,27,17.00
2006,06,21,09,28,17.00
2006,06,21,09,29,17.00
2006,06,21,09,30,17.10
2006,06,21,09,31,17.10
2006,06,21,09,32,17.30
2006,06,21,09,33,17.30
2006,06,21,09,34,17.30
2006,06,21,09,35,17.40
2006,06,21,09,36,17.40
2006,06,21,09,37,17.40
2006,06,21,09,38,17.40
2006,06,21,09,39,17.40
2006,06,21,09,40,17.30
2006,06,21,09,41,17.30
2006,06,21,09,42,17.30
2006,06,21,09,43,17.30
2006,06,21,09,44,17.30
2006,06,21,09,45,17.30
2006,06,21,09,46,17.30
2006,06,21,09,47,17.30
2006,06,21,09,48,17.30
2006,06,21,09,49,17.20
2006,06,21,09,50,17.20
2006,06,21,09,51,17.20
2006,06,21,09,52,17.20
2006,06,21,09,53,17.20
2006,06,21,09,54,17.20
2006,06,21,09,55,17.10
2006,06,21,09,56,17.10
2006,06,21,09,57,17.10
2006,06,21,09,58,17.20
2006,06,21,09,59,17.30
2006,06,21,10,00,17.40
2006,06,21,10,01,17.50
2006,06,21,10,02,17.70
2006,06,21,10,03,17.70
2006,06,21,10,04,17.90
2006,06,21,10,05,17.90
2006,06,21,10,06,17.90
2006,06,21,10,07,17.90
2006,06,21,10,08,17.90
2006,06,21,10,09,17.80
2006,06,21,10,10,17.70
2006,06,21,10,11,17.70
2006,06,21,10,12,17.60
2006,06,21,10,13,17.50
2006,06,21,10,14,17.50
2006,06,21,10,15,17.50
2006,06,21,10,16,17.40
2006,06,21,10,17,17.40
2006,06,21,10,18,17.30
2006,06,21,10,19,17.30
2006,06,21,10,20,17.30
2006,06,21,10,21,17.30
2006,06,21,10,22,17.30
2006,06,21,10,23,17.20
2006,06,21,10,24,17.10
2006,06,21,10,25,17.10
2006,06,21,10,26,17.00
2006,06,21,10,27,16.90
2006,06,21,10,28,16.90
2006,06,21,10,29,16.90
2006,06,21,10,30,16.90
2006,06,21,10,31,16.90
2006,06,21,10,32,16.90
2006,06,21,10,33,16.90
2006,06,21,10,34,17.00
2006,06,21,10,35,17.00
2006,06,21,10,36,17.00
2006,06,21,10,37,17.10
2006,06,21,10,38,17.20
2006,06,21,10,39,17.30
2006,06,21,10,40,17.30
2006,06,21,10,41,17.40
2006,06,21,10,42,17.40
2006,06,21,10,43,17.30
2006,06,21,10,44,17.30
2006,06,21,10,45,17.20
2006,06,21,10,46,17.20
2006,06,21,10,47,17.20
2006,06,21,10,48,17.20
2006,06,21,10,49,17.20
2006,06,21,10,50,17.30
2006,06,21,10,51,17.40
2006,06,21,10,52,17.50
2006,06,21,10,53,17.60
2006,06,21,10,54,17.70
2006,06,21,10,55,17.70
2006,06,21,10,56,17.70
2006,06,21,10,57,17.50
2006,06,21,10,58,17.50
2006,06,21,10,59,17.50
2006,06,21,11,00,17.60
2006,06,21,11,01,17.70
2006,06,21,11,02,17.90
2006,06,21,11,03,18.10
2006,06,21,11,04,18.30
2006,06,21,11,05,18.50
2006,06,21,11,06,18.50
2006,06,21,11,07,18.60
2006,06,21,11,08,18.70
2006,06,21,11,09,18.70
2006,06,21,11,10,18.80
2006,06,21,11,11,18.90
2006,06,21,11,12,18.90
2006,06,21,11,13,18.70
2006,06,21,11,14,18.60
2006,06,21,11,15,18.40
2006,06,21,11,16,18.30
2006,06,21,11,17,18.30
2006,06,21,11,18,18.30
2006,06,21,11,19,18.20
2006,06,21,11,20,18.30
2006,06,21,11,21,18.30
2006,06,21,11,22,18.30
2006,06,21,11,23,18.30
2006,06,21,11,24,18.30
2006,06,21,11,25,18.30
2006,06,21,11,26,18.30
2006,06,21,11,27,18.40
2006,06,21,11,28,18.40
2006,06,21,11,29,18.40
2006,06,21,11,30,18.40
2006,06,21,11,31,18.40
2006,06,21,11,32,18.30
2006,06,21,11,33,18.30
2006,06,21,11,34,18.30
2006,06,21,11,35,18.30
2006,06,21,11,36,18.30
2006,06,21,11,37,18.30
2006,06,21,11,38,18.30
2006,06,21,11,39,18.30
2006,06,21,11,40,18.30
2006,06,21,11,41,18.30
2006,06,21,11,42,18.30
2006,06,21,11,43,18.30
2006,06,21,11,44,18.20
2006,06,21,11,45,18.00
2006,06,21,11,46,17.80
2006,06,21,11,47,17.70
2006,06,21,11,48,17.50
2006,06,21,11,49,17.40
2006,06,21,11,50,17.30
2006,06,21,11,51,17.20
2006,06,21,11,52,17.20
2006,06,21,11,53,17.20
2006,06,21,11,54,17.20
2006,06,21,11,55,17.20
2006,06,21,11,56,17.20
2006,06,21,11,57,17.30
2006,06,21,11,58,17.30
2006,06,21,11,59,17.40
2006,06,21,12,00,17.40
2006,06,21,12,01,17.40
2006,06,21,12,02,17.40
2006,06,21,12,03,17.40
2006,06,21,12,04,17.30
2006,06,21,12,05,17.30
2006,06,21,12,06,17.30
2006,06,21,12,07,17.30
2006,06,21,12,08,17.30
2006,06,21,12,09,17.30
2006,06,21,12,10,17.40
2006,06,21,12,11,17.40
2006,06,21,12,12,17.40
2006,06,21,12,13,17.50
2006,06,21,12,14,17.50
2006,06,21,12,15,17.50
2006,06,21,12,16,17.50
2006,06,21,12,17,17.50
2006,06,21,12,18,17.50
2006,06,21,12,19,17.50
2006,06,21,12,20,17.50
2006,06,21,12,21,17.50
2006,06,21,12,22,17.50
2006,06,21,12,23,17.50
2006,06,21,12,24,17.50
2006,06,21,12,25,17.40
2006,06,21,12,26,17.40
2006,06,21,12,27,17.50
2006,06,21,12,28,17.50
2006,06,21,12,29,17.60
2006,06,21,12,30,17.60
2006,06,21,12,31,17.60
2006,06,21,12,32,17.70
2006,06,21,12,33,17.70
2006,06,21,12,34,17.70
2006,06,21,12,35,17.60
2006,06,21,12,36,17.60
2006,06,21,12,37,17.50
2006,06,21,12,38,17.50
2006,06,21,12,39,17.50
2006,06,21,12,40,17.50
2006,06,21,12,41,17.40
2006,06,21,12,42,17.50
2006,06,21,12,43,17.50
2006,06,21,12,44,17.50
2006,06,21,12,45,17.60
2006,06,21,12,46,17.60
2006,06,21,12,47,17.60
2006,06,21,12,48,17.60
2006,06,21,12,49,17.60
2006,06,21,12,50,17.60
2006,06,21,12,51,17.50
2006,06,21,12,52,17.50
2006,06,21,12,53,17.50
2006,06,21,12,54,17.50
2006,06,21,12,55,17.60
2006,06,21,12,56,17.60
2006,06,21,12,57,17.60
2006,06,21,12,58,17.60
2006,06,21,12,59,17.60
2006,06,21,13,00,17.70
2006,06,21,13,01,17.70
2006,06,21,13,02,17.70
2006,06,21,13,03,17.70
2006,06,21,13,04,17.80
2006,06,21,13,05,17.70
2006,06,21,13,06,17.70
2006,06,21,13,07,17.70
2006,06,21,13,08,17.80
2006,06,21,13,09,17.80
2006,06,21,13,10,17.90
2006,06,21,13,11,17.90
2006,06,21,13,12,17.90
2006,06,21,13,13,17.90
2006,06,21,13,14,17.90
2006,06,21,13,15,17.90
2006,06,21,13,16,17.90
2006,06,21,13,17,17.90
2006,06,21,13,18,17.90
2006,06,21,13,19,17.90
2006,06,21,13,20,17.90
2006,06,21,13,21,18.10
2006,06,21,13,22,18.10
2006,06,21,13,23,18.20
2006,06,21,13,24,18.20
2006,06,21,13,25,18.30
2006,06,21,13,26,18.30
2006,06,21,13,27,18.30
2006,06,21,13,28,18.30
2006,06,21,13,29,18.20
2006,06,21,13,30,18.20
2006,06,21,13,31,18.10
2006,06,21,13,32,18.00
2006,06,21,13,33,18.00
2006,06,21,13,34,18.10
2006,06,21,13,35,18.10
2006,06,21,13,36,18.10
2006,06,21,13,37,18.20
2006,06,21,13,38,18.20
2006,06,21,13,39,18.20
2006,06,21,13,40,18.20
2006,06,21,13,41,18.20
2006,06,21,13,42,18.20
2006,06,21,13,43,18.20
2006,06,21,13,44,18.20
2006,06,21,13,45,18.20
2006,06,21,13,46,18.20
2006,06,21,13,47,18.10
2006,06,21,13,48,18.00
2006,06,21,13,49,18.10
2006,06,21,13,50,18.10
2006,06,21,13,51,18.10
2006,06,21,13,52,18.10
2006,06,21,13,53,18.20
2006,06,21,13,54,18.20
2006,06,21,13,55,18.20
2006,06,21,13,56,18.20
2006,06,21,13,57,18.20
2006,06,21,13,58,18.20
2006,06,21,13,59,18.20
2006,06,21,14,00,18.30
2006,06,21,14,01,18.40
2006,06,21,14,02,18.40
2006,06,21,14,03,18.40
2006,06,21,14,04,18.30
2006,06,21,14,05,18.40
2006,06,21,14,06,18.50
2006,06,21,14,07,18.50
2006,06,21,14,08,18.50
2006,06,21,14,09,18.50
2006,06,21,14,10,18.50
2006,06,21,14,11,18.50
2006,06,21,14,12,18.60
2006,06,21,14,13,18.60
2006,06,21,14,14,18.60
2006,06,21,14,15,18.70
2006,06,21,14,16,18.80
2006,06,21,14,17,18.80
2006,06,21,14,18,18.80
2006,06,21,14,19,18.70
2006,06,21,14,20,18.60
2006,06,21,14,21,18.60
2006,06,21,14,22,18.60
2006,06,21,14,23,18.60
2006,06,21,14,24,18.60
2006,06,21,14,25,18.60
2006,06,21,14,26,18.60
2006,06,21,14,27,18.70
2006,06,21,14,28,18.70
2006,06,21,14,29,18.70
2006,06,21,14,30,18.70
2006,06,21,14,31,18.70
2006,06,21,14,32,18.70
2006,06,21,14,33,18.70
2006,06,21,14,34,18.80
2006,06,21,14,35,18.80
2006,06,21,14,36,18.80
2006,06,21,14,37,18.90
2006,06,21,14,38,18.90
2006,06,21,14,39,18.90
2006,06,21,14,40,18.90
2006,06,21,14,41,18.90
2006,06,21,14,42,18.90
2006,06,21,14,43,19.10
2006,06,21,14,44,19.10
2006,06,21,14,45,19.10
2006,06,21,14,46,19.10
2006,06,21,14,47,19.10
2006,06,21,14,48,19.10
2006,06,21,14,49,19.10
2006,06,21,14,50,19.10
2006,06,21,14,51,19.10
2006,06,21,14,52,19.10
2006,06,21,14,53,19.10
2006,06,21,14,54,19.10
2006,06,21,14,55,19.20
2006,06,21,14,56,19.30
2006,06,21,14,57,19.30
2006,06,21,14,58,19.20
2006,06,21,14,59,19.20
2006,06,21,15,00,19.10
2006,06,21,15,01,19.10
2006,06,21,15,02,19.10
2006,06,21,15,03,19.10
2006,06,21,15,04,19.10
2006,06,21,15,05,19.00
2006,06,21,15,06,19.10
2006,06,21,15,07,19.10
2006,06,21,15,08,19.20
2006,06,21,15,09,19.30
2006,06,21,15,10,19.40
2006,06,21,15,11,19.50
2006,06,21,15,12,19.50
2006,06,21,15,13,19.60
2006,06,21,15,14,19.60
2006,06,21,15,15,19.70
2006,06,21,15,16,19.60
2006,06,21,15,17,19.60
2006,06,21,15,18,19.60
2006,06,21,15,19,19.70
2006,06,21,15,20,19.80
2006,06,21,15,21,19.90
2006,06,21,15,22,20.00
2006,06,21,15,23,20.10
2006,06,21,15,24,20.20
2006,06,21,15,25,20.20
2006,06,21,15,26,20.30
2006,06,21,15,27,20.40
2006,06,21,15,28,20.50
2006,06,21,15,29,20.60
2006,06,21,15,30,20.60
2006,06,21,15,31,20.60
2006,06,21,15,32,20.50
2006,06,21,15,33,20.40
2006,06,21,15,34,20.30
2006,06,21,15,35,20.10
2006,06,21,15,36,20.00
2006,06,21,15,37,19.90
2006,06,21,15,38,19.80
2006,06,21,15,39,19.70
2006,06,21,15,40,19.70
2006,06,21,15,41,19.70
2006,06,21,15,42,19.60
2006,06,21,15,43,19.50
2006,06,21,15,44,19.40
2006,06,21,15,45,19.40
2006,06,21,15,46,19.40
2006,06,21,15,47,19.50
2006,06,21,15,48,19.50
2006,06,21,15,49,19.50
2006,06,21,15,50,19.50
2006,06,21,15,51,19.50
2006,06,21,15,52,19.50
2006,06,21,15,53,19.50
2006,06,21,15,54,19.50
2006,06,21,15,55,19.40
2006,06,21,15,56,19.30
2006,06,21,15,57,19.30
2006,06,21,15,58,19.20
2006,06,21,15,59,19.10
2006,06,21,16,00,19.10
2006,06,21,16,01,19.10
2006,06,21,16,02,19.20
2006,06,21,16,03,19.30
2006,06,21,16,04,19.30
2006,06,21,16,05,19.40
2006,06,21,16,06,19.50
2006,06,21,16,07,19.50
2006,06,21,16,08,19.40
2006,06,21,16,09,19.40
2006,06,21,16,10,19.50
2006,06,21,16,11,19.50
2006,06,21,16,12,19.50
2006,06,21,16,13,19.50
2006,06,21,16,14,19.50
2006,06,21,16,15,19.50
2006,06,21,16,16,19.50
2006,06,21,16,17,19.50
2006,06,21,16,18,19.60
2006,06,21,16,19,19.60
2006,06,21,16,20,19.60
2006,06,21,16,21,19.70
2006,06,21,16,22,19.70
2006,06,21,16,23,19.80
2006,06,21,16,24,19.80
2006,06,21,16,25,19.70
2006,06,21,16,26,19.70
2006,06,21,16,27,19.70
2006,06,21,16,28,19.70
2006,06,21,16,29,19.80
2006,06,21,16,30,19.80
2006,06,21,16,31,19.90
2006,06,21,16,32,20.00
2006,06,21,16,33,20.20
2006,06,21,16,34,20.20
2006,06,21,16,35,20.20
2006,06,21,16,36,20.20
2006,06,21,16,37,20.20
2006,06,21,16,38,20.20
2006,06,21,16,39,20.20
2006,06,21,16,40,20.20
2006,06,21,16,41,20.20
2006,06,21,16,42,20.20
2006,06,21,16,43,20.20
2006,06,21,16,44,20.10
2006,06,21,16,45,20.10
2006,06,21,16,46,19.90
2006,06,21,16,47,19.90
2006,06,21,16,48,19.80
2006,06,21,16,49,19.80
2006,06,21,16,50,19.80
2006,06,21,16,51,19.80
2006,06,21,16,52,19.70
2006,06,21,16,53,19.70
2006,06,21,16,54,19.70
2006,06,21,16,55,19.70
2006,06,21,16,56,19.60
2006,06,21,16,57,19.60
2006,06,21,16,58,19.60
2006,06,21,16,59,19.60
2006,06,21,17,00,19.50
2006,06,21,17,01,19.50
2006,06,21,17,02,19.50
2006,06,21,17,03,19.60
2006,06,21,17,04,19.60
2006,06,21,17,05,19.70
2006,06,21,17,06,19.70
2006,06,21,17,07,19.70
2006,06,21,17,08,19.70
2006,06,21,17,09,19.80
2006,06,21,17,10,19.80
2006,06,21,17,11,19.80
2006,06,21,17,12,19.90
2006,06,21,17,13,19.90
2006,06,21,17,14,19.90
2006,06,21,17,15,19.90
2006,06,21,17,16,19.90
2006,06,21,17,17,19.80
2006,06,21,17,18,19.80
2006,06,21,17,19,19.80
2006,06,21,17,20,19.80
2006,06,21,17,21,19.80
2006,06,21,17,22,19.80
2006,06,21,17,23,19.80
2006,06,21,17,24,19.70
2006,06,21,17,25,19.60
2006,06,21,17,26,19.70
2006,06,21,17,27,19.80
2006,06,21,17,28,19.80
2006,06,21,17,29,19.90
2006,06,21,17,30,19.90